This is the latest recevied weather packets stored in our database for station/object KM5R. If no packets are shown the sender has not sent any weather packets the latest 10 day(s).
| Time | Temp. | Humidity | Pressure | Rain* | Wind** | Luminosity | Snow |
|---|---|---|---|---|---|---|---|
| 1777926573 | 26.11° C | 58% | 1011.6 hPa | 0 mm | - | 601 W/m² | - |
| 1777926269 | 26.11° C | 58% | 1011.9 hPa | 0 mm | - | 575 W/m² | - |
| 1777925966 | 26.11° C | 58% | 1011.7 hPa | 0 mm | - | 417 W/m² | - |
| 1777925664 | 26.11° C | 59% | 1012 hPa | 0 mm | - | 366 W/m² | - |
| 1777925361 | 26.11° C | 58% | 1011.8 hPa | 0 mm | - | 471 W/m² | - |
| 1777925057 | 26.11° C | 59% | 1012 hPa | 0 mm | - | 558 W/m² | - |
| 1777924754 | 26.11° C | 59% | 1012.1 hPa | 0 mm | - | 430 W/m² | - |
| 1777924450 | 26.11° C | 58% | 1012.3 hPa | 0 mm | - | 609 W/m² | - |
| 1777924147 | 26.11° C | 58% | 1012.6 hPa | 0 mm | - | 482 W/m² | - |
| 1777923842 | 25.56° C | 59% | 1012.9 hPa | 0 mm | - | 571 W/m² | - |
| 1777923539 | 26.11° C | 58% | 1012.6 hPa | 0 mm | - | 507 W/m² | - |
| 1777923236 | 25.56° C | 59% | 1012.7 hPa | 0 mm | - | 700 W/m² | - |
| 1777922935 | 25.56° C | 59% | 1012.2 hPa | 0 mm | - | 681 W/m² | - |
| 1777922632 | 25.56° C | 59% | 1012.9 hPa | 0 mm | - | 716 W/m² | - |
| 1777922330 | 26.11° C | 59% | 1012.7 hPa | 0 mm | - | 691 W/m² | - |
| 1777922029 | 25.56° C | 59% | 1012.9 hPa | 0 mm | - | 771 W/m² | - |
| 1777921729 | 25° C | 60% | 1012.9 hPa | 0 mm | - | 687 W/m² | - |
| 1777921425 | 25° C | 60% | 1012.9 hPa | 0 mm | - | 788 W/m² | - |
| 1777921122 | 25° C | 60% | 1013.1 hPa | 0 mm | - | 789 W/m² | - |
| 1777920819 | 25° C | 61% | 1013.2 hPa | 0 mm | - | 791 W/m² | - |
| 1777920515 | 25° C | 59% | 1013.5 hPa | 0 mm | - | 806 W/m² | - |
| 1777920211 | 25° C | 60% | 1013.4 hPa | 0 mm | - | 862 W/m² | - |
| 1777919907 | 24.44° C | 61% | 1013.8 hPa | 0 mm | - | 643 W/m² | - |
| 1777919604 | 25° C | 61% | 1013.6 hPa | 0 mm | - | 743 W/m² | - |
| 1777919302 | 24.44° C | 62% | 1013.6 hPa | 0 mm | - | 802 W/m² | - |
* Rain latest hour (hover to see other rain measurements)
** Current wind speed in m/s (hover to see current wind gust speed)